Погода Сумы

Погода Сумы : погода сейчас, прогноз погоды и архив. Всё, что Вы хотите узнать о погоде Сумы!

Хотите узнать прогноз погоды Сумы? Тогда Вам сюда: Погода Сумы

Поиск расширенной информации на нашем сайте:

Полезная информация: Подборка материалов по истории и теории экономики http://www.econbook.ru/

Другие новости

Новости СМИ2

Главная страница сайта

Новости сайта

02.10.2013

Напоминаем, что на нашем новом сайте вы можете получить высокодетализированные прогнозы погоды по пунктам России, СНГ и мира (включающие важные для авиации метеовеличины, такие как направление и скорость ветра, видимость, явления погоды, количество и форма облачности, нижняя и верхняя граница облачности), а также ознакомиться с разнообразными материалами по авиационной метеорологии и подборкой полезных ссылок на эту тему.

Сайт Метеоцентр.Азия посвящён разработке технологий оптимизации авиаметеорологического обслуживания, включая проектирование и перспективное создание нескольких автоматизированных авиаметеорологических систем:
- система выпуска высокодетальных прогностических карт явлений погоды для нижнего воздушного пространства по России и ближнему зарубежью;
- система верификации прогнозов TAF (выпускаемых синоптиками официальных АМСГ РФ и ближнего зарубежья) и AUTOTAF (выпускаемых сайтом Метеоцентр.Азия) - выявление ошибок, онлайн-сопоставление с фактической погодой METAR, автоматическое внесение коррективов в прогнозы при резком отклонении фактической погоды от прогноза, подсчёт оправдываемости прогнозов по элементам и в целом;
- система обработки, анализа и отображения авиаметеорологической информации для применения провайдерами метеорологической информации.

Рекомендуем: Втб финансирует вэб лизинг veb-leasing.ru.

Погода Сумы - сегодня

Время (UTC), дата Ветер
(°,м/с) 
Видим.   Явления Облачность Т
(°С)
Тd
(°С)
f(%) Тe
(°С)
Pmin
(гПа)
dP
(гПа)
Po
(мм)
O2
(г/м3)
Тmin Tmax R s Состояние
почвы
09 16.02.17 300 (СЗ) 10 км    ясно 
-5.7 -10.9 67 -5  1033.6  0.1  757  313           
12 16.02.17 300 (СЗ) 10 км    3/0 средняя 
[Ac trans]
-2.8 -10.3 56 -4  1032.3  -1.1  757  309           
15 16.02.17 290 (З) 10 км    ясно 
-5.2 -12.1 58 -7  1032.2  -0.3  756  312           
18 16.02.17 180 (Ю) 10 км    3/0 средняя 
[Ac trans]
-9.6 -13.7 72 -13  1031.7  -0.9  756  317    -2.8       
21 16.02.17 170 (Ю) 10 км    6/0 средняя 
[Ac trans]
-10.4 -12.6 84 -14  1030.8  -0.9  755  317           
00 17.02.17 190 (Ю) 10 км    8/0 средняя 
[Ac trans]
-8.4 -10.7 83 -13  1029.5  -1.1  754  315           
03 17.02.17 190 (Ю) 10 км    10/0 средняя 
[Ac und]
-7 -9.9 80 -12  1026.9  -2.4  752  312           
06 17.02.17 180 (Ю) 10 км  в посл. час крупа{ливн. осадки}  9/4 600 м кучево-дожд., средняя 
[Cb calv|Ac trans]
-5.6 -8.6 79 -11  1024.6  -2.1  751  310  -10.4    0.0  27  равномерный
сухой снег
100% 
09 17.02.17 190 (Ю) 10 км    10/0 средняя, верхняя 
[Ac trans|Ci fib]
-3.1 -7 74 -8  1022.7  -1.7  750  306           
12 17.02.17 200 (Ю) 10 км    3/0 средняя 
[Ac trans]
-1.5 -5.9 72 -5  1020.5  -2  748  304           
15 17.02.17 220 (ЮЗ) 10 км    3/0 верхняя 
[Ci fib]
-1.2 -5.2 74 -4  1019.9  -0.5  748  303           
18 17.02.17 240 (ЮЗ) 10 км    10/10 750 м 
[Sc]
-0.6 -3.4 81 -4  1019.7  -0.2  748  302    -0.2       
21 17.02.17 240 (ЮЗ) 10 км    10/10 630 м 
[Sc]
-0.7 -2.9 85 -4  1019.4  -0.3  747  302           
00 18.02.17 230 (ЮЗ) 10 км    10/10 450 м 
[Sc]
-0.6 -2.1 90 -3  1019.4  747  302           
03 18.02.17 230 (ЮЗ) 10 км    10/10 570 м 
[Sc]
-1 -2 93 -3  1018.8  -0.6  747  302           
06 18.02.17 190 (Ю) 2000 м  дымка  10/10 660 м 
[Sc]
-1.2 -1.9 95 -2  1019  0.2  747  303  -1.4      27  равномерный
сухой снег
100% 
09 18.02.17 210 (ЮЗ) 2000 м  дымка  10/0 средняя 
[Ac und]
+0.6 -1.4 86 1018.8  747  300           
12 18.02.17 220 (ЮЗ) 10 км    10/0 средняя 
[Ac und]
+1.2 -1.4 83 -1  1018.4  -0.4  747  300           
15 18.02.17 240 (ЮЗ) 10 км    8/0 средняя 
[Ac trans]
+1.4 -0.3 88 +1  1018.7  0.3  747  299           
18 18.02.17 230 (ЮЗ) 2000 м  дымка  10/10 180 м 
[St]
+0.6 -0.2 94 -2  1019.7  0.9  748  301    +1.8       
21 18.02.17 240 (ЮЗ) 2000 м  дымка  10/10 360 м 
[St]
+0.6 -0.2 94 -2  1020.4  0.7  748  301           
00 19.02.17 260 (З) 2000 м  дымка  10/10 120 м 
[St]
+0.4 -0.2 96 -1  1021.5  1.1  749  301           
03 19.02.17 270 (З) 1000 м  дымка  10/10 120 м 
[St]
+0.3 -0.3 96 -1  1022.3  0.8  750  302           
06 19.02.17 230 (ЮЗ) 2000 м  дымка  10/10 750 м 
[Sc]
+0.8 +0 94 -2  1023.1  0.8  750  301  +0.3      26  равномерный
мокрый или
старый снег
100% 
09 19.02.17 260 (З) 2000 м  дымка  10/10 360 м 
[St]
+1.4 +0.6 94 1024  0.9  751  301           
Время (UTC), дата Ветер
(°,м/с) 
Видим.   Явления Облачность Т
(°С)
Тd
(°С)
f(%) Тe
(°С)
Pmin
(гПа)
dP
(гПа)
Po
(мм)
O2
(г/м3)
Тmin Tmax R s Состояние
почвы

Для получения пояснительной информации подведите курсор к названию столбца.

ПОГОДА Сумы - архив

Всё, что Вы хотите узнать о погоде Сумы - удобно и подробно!

Выберите нужную дату (начиная с 1 января 2015* года) и нажмите кнопку "Найти".
Будут отображены архивные сводки погоды по пункту Сумы, начиная с указанной даты.


Отображать данные в формате CSV (для использования в таблицах Excel)


Внимание! Наш архив погоды предназначен исключительно для личного некоммерческого использования в познавательных целях. Если Вам необходимы официальные справки о состоянии погоды (для производственных, юридических, коммерческих и т.п. целей), обращайтесь в органы Росгидромета.

*Примечание: данная дата относится к архиву по метеостанциям СССР (Россия, СНГ, Балтия).
Архив по метеостанциям Зарубежной Европы и Азии (кроме Китая) хранится 10 дней, по другим регионам земного шара (Китай, Африка, Америка, Австралия, Океания) - 1 день.

Сумы - район местоположения метеостанции


Название, широта, долгота, высота метеостанции:
Сумы 50.9°ш. 34.7°д. 181 м над ур. моря [Украина]

Дополнительная информация

В oтличие oт бoльшинства пoгoдных сайтoв мы публикуем пoдрoбную метеoинфoрмацию в детальнoм прoфессиoнальнoм фoрмате.

Характеристики температуры и влажнoсти вoздуха измеряются на высoте 2 м в тени вдали oт зданий и деревьев.
Скoрoсть ветра измеряется на высoте 10 м (на урoвне рoста челoвека скoрoсть ветра ниже в 1.5-2 раза). Если метеoстанция нахoдится в гoрoде или в лесу, тo скoрoсть ветра занижена на 2-4 м/с пo сравнению с oткрытым местoм. Скoрoсть ветра над акватoриями крупных рек и oзёр, а также на вершинах хoлмoв на 2-5 м/с выше, чем в oбычных услoвиях.
Атмoсфернoе давление в разных тoчках местнoсти мoжет значительнo oтличаться oт давления на метеoстанции, в зависимoсти oт услoвий рельефа (при пoдъёме на 10 м давление пoнижается примернo на 1 мм рт.ст.).